Location: Les Jeannots
(43.2262°N, 5.5774°E)
Time: 03:03:26
(UTC+00:00)

Cosmos 1844 - Pass Details

Date: 05 July 2020
Orbit: 822 x 868 km, 70.9° (Epoch: 04 August)

Event Time Altitude Azimuth Distance (km) Brightness Sun altitude
Rises 20:16:43 0° 339° (NNW) 3,459 8.2 -8.9°
Reaches altitude 10° 20:19:18 10° 345° (NNW) 2,514 7.2 -9.3°
Maximum altitude 20:24:53 48° 59° (ENE) 1,111 4.2 -10.0°
Enters shadow 20:29:41 14° 131° (SE) 2,225 5.2 -10.6°
